| time (UTC) | temp F | wind direction | speed MPH | gust MPH | rain 1hr in | rain 24hr in | rain mn in | humidity % | barometer mb |
| 20260509150026 | 80 | 269 | 2.0 | 8.0 | 0.00 | 0.00 | 0.00 | 62 | 1009.9 |
| 20260509145526 | 80 | 257 | 3.0 | 8.0 | 0.00 | 0.00 | 0.00 | 63 | 1010.0 |
| 20260509145026 | 80 | 280 | 3.0 | 7.0 | 0.00 | 0.00 | 0.00 | 63 | 1010.0 |
| 20260509144531 | 80 | 32 | 1.0 | 5.0 | 0.00 | 0.00 | 0.00 | 63 | 1009.9 |
| 20260509144527 | 80 | 271 | 2.0 | 7.0 | 0.00 | 0.00 | 0.00 | 62 | 1009.9 |
| 20260509143525 | 79 | 264 | 1.0 | 9.0 | 0.00 | 0.00 | 0.00 | 65 | 1009.9 |
| 20260509143025 | 79 | 287 | 2.0 | 9.0 | 0.00 | 0.00 | 0.00 | 65 | 1009.9 |
| 20260509142525 | 79 | 258 | 2.0 | 7.0 | 0.00 | 0.00 | 0.00 | 65 | 1009.9 |
| 20260509142023 | 79 | 207 | 1.0 | 6.0 | 0.00 | 0.00 | 0.00 | 64 | 1009.9 |
| 20260509141529 | 80 | 283 | 1.0 | 6.0 | 0.00 | 0.00 | 0.00 | 66 | 1009.8 |
| 20260509141525 | 80 | 285 | 1.0 | 6.0 | 0.00 | 0.00 | 0.00 | 66 | 1009.9 |
| 20260509140524 | 79 | 256 | 1.0 | 6.0 | 0.00 | 0.00 | 0.00 | 68 | 1009.9 |
| 20260509140024 | 78 | 276 | 0.0 | 3.0 | 0.00 | 0.00 | 0.00 | 74 | 1009.9 |
| 20260509135523 | 77 | 290 | 1.0 | 3.0 | 0.00 | 0.00 | 0.00 | 75 | 1009.9 |
| 20260509135023 | 76 | 290 | 1.0 | 7.0 | 0.00 | 0.00 | 0.00 | 76 | 1009.9 |
| 20260509134522 | 76 | 287 | 2.0 | 7.0 | 0.00 | 0.00 | 0.00 | 77 | 1009.8 |
| 20260509134019 | 76 | 297 | 1.0 | 7.0 | 0.00 | 0.00 | 0.00 | 77 | 1009.8 |
| 20260509133523 | 76 | 276 | 1.0 | 4.0 | 0.00 | 0.00 | 0.00 | 78 | 1009.7 |
| 20260509133519 | 76 | 211 | 1.0 | 7.0 | 0.00 | 0.00 | 0.00 | 77 | 1009.8 |
| 20260509133134 | 75 | 254 | 1.0 | 4.0 | 0.00 | 0.00 | 0.00 | 79 | 1009.7 |
| 20260509132021 | 74 | 276 | 1.0 | 3.0 | 0.00 | 0.00 | 0.00 | 81 | 1009.7 |
| 20260509131519 | 74 | 112 | 0.0 | 3.0 | 0.00 | 0.00 | 0.00 | 82 | 1009.7 |
| 20260509131019 | 73 | 18 | 1.0 | 4.0 | 0.00 | 0.00 | 0.00 | 83 | 1009.7 |
| 20260509130519 | 73 | 243 | 1.0 | 4.0 | 0.00 | 0.00 | 0.00 | 84 | 1009.7 |
| 20260509130018 | 72 | 305 | 1.0 | 6.0 | 0.00 | 0.00 | 0.00 | 85 | 1009.7 |
| 20260509125521 | 71 | 242 | 1.0 | 5.0 | 0.00 | 0.00 | 0.00 | 85 | 1009.7 |
| 20260509125517 | 71 | 288 | 0.0 | 6.0 | 0.00 | 0.00 | 0.00 | 84 | 1009.7 |
| 20260509124516 | 71 | 234 | 1.0 | 5.0 | 0.00 | 0.00 | 0.00 | 84 | 1009.7 |
| 20260509124015 | 70 | 295 | 0.0 | 3.0 | 0.00 | 0.00 | 0.00 | 84 | 1009.7 |
| 20260509123517 | 70 | 292 | 0.0 | 1.0 | 0.00 | 0.00 | 0.00 | 84 | 1009.7 |
| 20260509123015 | 69 | 300 | 1.0 | 5.0 | 0.00 | 0.00 | 0.00 | 83 | 1009.7 |
| 20260509122517 | 69 | 267 | 1.0 | 6.0 | 0.00 | 0.00 | 0.00 | 83 | 1009.6 |
| 20260509122016 | 69 | 252 | 1.0 | 6.0 | 0.00 | 0.00 | 0.00 | 83 | 1009.6 |
| 20260509121521 | 69 | 292 | 1.0 | 4.0 | 0.00 | 0.00 | 0.00 | 83 | 1009.5 |
| 20260509121516 | 69 | 229 | 1.0 | 4.0 | 0.00 | 0.00 | 0.00 | 83 | 1009.5 |
| 20260509120516 | 69 | 213 | 1.0 | 4.0 | 0.00 | 0.00 | 0.00 | 84 | 1009.5 |
| 20260509120016 | 69 | 291 | 1.0 | 4.0 | 0.00 | 0.00 | 0.00 | 84 | 1009.5 |
| 20260509115521 | 69 | 230 | 0.0 | 3.0 | 0.00 | 0.00 | 0.00 | 85 | 1009.3 |
| 20260509115516 | 69 | 287 | 1.0 | 4.0 | 0.00 | 0.00 | 0.00 | 84 | 1009.4 |
| 20260509115130 | 69 | 269 | 0.0 | 3.0 | 0.00 | 0.00 | 0.00 | 85 | 1009.2 |
| 20260509114017 | 69 | 290 | 1.0 | 4.0 | 0.00 | 0.00 | 0.00 | 85 | 1009.2 |
| 20260509113515 | 69 | 306 | 0.0 | 4.0 | 0.00 | 0.00 | 0.00 | 85 | 1009.1 |
| 20260509113016 | 69 | 299 | 0.0 | 2.0 | 0.00 | 0.00 | 0.00 | 84 | 1009.0 |
| 20260509112515 | 68 | 253 | 0.0 | 2.0 | 0.00 | 0.00 | 0.00 | 84 | 1009.0 |
| 20260509112021 | 69 | 289 | 0.0 | 1.0 | 0.00 | 0.00 | 0.00 | 83 | 1008.7 |
| 20260509112016 | 69 | 285 | 0.0 | 1.0 | 0.00 | 0.00 | 0.00 | 83 | 1008.7 |
| 20260509111016 | 68 | 285 | 0.0 | 1.0 | 0.00 | 0.00 | 0.00 | 83 | 1008.6 |
| 20260509110515 | 69 | 290 | 0.0 | 0.0 | 0.00 | 0.00 | 0.00 | 83 | 1008.3 |
| 20260509110016 | 69 | 290 | 0.0 | 1.0 | 0.00 | 0.00 | 0.00 | 83 | 1008.4 |
| 20260509105516 | 69 | 290 | 0.0 | 1.0 | 0.00 | 0.00 | 0.00 | 82 | 1008.3 |
| 20260509105017 | 69 | 235 | 0.0 | 0.0 | 0.00 | 0.00 | 0.00 | 82 | 1008.2 |
| 20260509104519 | 69 | 292 | 0.0 | 2.0 | 0.00 | 0.00 | 0.00 | 81 | 1008.4 |
| 20260509104515 | 69 | 276 | 0.0 | 2.0 | 0.00 | 0.00 | 0.00 | 82 | 1008.3 |
| 20260509104128 | 70 | 230 | 0.0 | 2.0 | 0.00 | 0.00 | 0.00 | 81 | 1008.3 |
| 20260509103630 | 70 | 305 | 0.0 | 2.0 | 0.00 | 0.00 | 0.00 | 80 | 1008.3 |
| 20260509102515 | 70 | 255 | 0.0 | 0.0 | 0.00 | 0.00 | 0.00 | 79 | 1008.2 |
| 20260509102017 | 71 | 253 | 0.0 | 4.0 | 0.00 | 0.00 | 0.00 | 79 | 1008.2 |
| 20260509101515 | 71 | 261 | 0.0 | 4.0 | 0.00 | 0.00 | 0.00 | 78 | 1008.2 |
| 20260509101016 | 71 | 197 | 1.0 | 3.0 | 0.00 | 0.00 | 0.00 | 79 | 1008.3 |
| 20260509100516 | 71 | 236 | 1.0 | 4.0 | 0.00 | 0.00 | 0.00 | 79 | 1008.2 |
| 20260509100016 | 70 | 286 | 0.0 | 4.0 | 0.00 | 0.00 | 0.00 | 80 | 1008.1 |
| 20260509095513 | 70 | 278 | 0.0 | 1.0 | 0.00 | 0.00 | 0.00 | 81 | 1007.9 |
| 20260509095013 | 70 | 248 | 0.0 | 0.0 | 0.00 | 0.00 | 0.00 | 82 | 1007.8 |
| 20260509094513 | 70 | 248 | 0.0 | 0.0 | 0.00 | 0.00 | 0.00 | 82 | 1007.5 |
| 20260509094013 | 71 | 248 | 0.0 | 0.0 | 0.00 | 0.00 | 0.00 | 83 | 1007.6 |
| 20260509093515 | 71 | 248 | 0.0 | 0.0 | 0.00 | 0.00 | 0.00 | 83 | 1007.4 |
| 20260509093511 | 71 | 248 | 0.0 | 0.0 | 0.00 | 0.00 | 0.00 | 83 | 1007.3 |
| 20260509092511 | 71 | 248 | 0.0 | 5.0 | 0.00 | 0.00 | 0.00 | 83 | 1007.2 |
| 20260509092012 | 71 | 248 | 0.0 | 5.0 | 0.00 | 0.00 | 0.00 | 84 | 1007.3 |
| 20260509091514 | 71 | 274 | 1.0 | 5.0 | 0.00 | 0.00 | 0.00 | 84 | 1007.2 |
| 20260509091510 | 71 | 277 | 0.0 | 4.0 | 0.00 | 0.00 | 0.00 | 84 | 1007.3 |
| 20260509090509 | 71 | 122 | 1.0 | 6.0 | 0.00 | 0.00 | 0.00 | 84 | 1007.0 |
| 20260509090014 | 71 | 311 | 1.0 | 6.0 | 0.00 | 0.00 | 0.00 | 83 | 1006.5 |
| 20260509090009 | 71 | 221 | 1.0 | 6.0 | 0.00 | 0.00 | 0.00 | 83 | 1006.0 |
| 20260509085007 | 71 | 267 | 1.0 | 6.0 | 0.00 | 0.00 | 0.00 | 83 | 1006.2 |
| 20260509084507 | 71 | 253 | 1.0 | 5.0 | 0.00 | 0.00 | 0.00 | 82 | 1006.2 |
| 20260509084004 | 71 | 226 | 1.0 | 5.0 | 0.00 | 0.00 | 0.00 | 82 | 1006.2 |
| 20260509083506 | 70 | 170 | 0.0 | 5.0 | 0.00 | 0.00 | 0.00 | 82 | 1006.1 |
| 20260509083119 | 70 | 158 | 1.0 | 5.0 | 0.00 | 0.00 | 0.00 | 81 | 1005.6 |
| 20260509083009 | 70 | 213 | 1.0 | 6.0 | 0.00 | 0.00 | 0.00 | 81 | 1006.0 |
| 20260509083005 | 70 | 225 | 1.0 | 6.0 | 0.00 | 0.00 | 0.00 | 82 | 1006.5 |
| 20260509081505 | 70 | 229 | 1.0 | 8.0 | 0.00 | 0.00 | 0.00 | 81 | 1006.0 |
| 20260509081005 | 70 | 212 | 0.0 | 8.0 | 0.00 | 0.00 | 0.00 | 81 | 1006.3 |
| 20260509080504 | 70 | 212 | 1.0 | 4.0 | 0.00 | 0.00 | 0.00 | 81 | 1006.6 |
| 20260509080004 | 70 | 214 | 1.0 | 4.0 | 0.00 | 0.00 | 0.00 | 81 | 1007.2 |
| 20260509075504 | 70 | 235 | 0.0 | 5.0 | 0.00 | 0.00 | 0.00 | 81 | 1007.6 |
| 20260509075004 | 70 | 188 | 0.0 | 5.0 | 0.00 | 0.00 | 0.00 | 82 | 1007.9 |
| 20260509074503 | 70 | 216 | 0.0 | 3.0 | 0.00 | 0.00 | 0.00 | 82 | 1008.3 |
| 20260509074003 | 70 | 163 | 0.0 | 2.0 | 0.00 | 0.00 | 0.00 | 82 | 1008.6 |
| 20260509073506 | 70 | 252 | 1.0 | 6.0 | 0.00 | 0.00 | 0.00 | 82 | 1008.7 |
| 20260509073502 | 70 | 210 | 1.0 | 6.0 | 0.00 | 0.00 | 0.00 | 82 | 1008.9 |
| 20260509073115 | 70 | 214 | 0.0 | 3.0 | 0.00 | 0.00 | 0.00 | 83 | 1009.0 |
| 20260509072002 | 70 | 241 | 0.0 | 3.0 | 0.00 | 0.00 | 0.00 | 83 | 1009.1 |
| 20260509071500 | 71 | 231 | 1.0 | 3.0 | 0.00 | 0.00 | 0.00 | 83 | 1009.3 |
| 20260509071002 | 70 | 299 | 1.0 | 4.0 | 0.00 | 0.00 | 0.00 | 82 | 1009.6 |
| 20260509070500 | 70 | 238 | 1.0 | 4.0 | 0.00 | 0.00 | 0.00 | 82 | 1009.6 |
| 20260509070003 | 70 | 257 | 0.0 | 3.0 | 0.00 | 0.00 | 0.00 | 81 | 1009.9 |
| 20260509065959 | 70 | 233 | 0.0 | 3.0 | 0.00 | 0.00 | 0.00 | 82 | 1009.8 |
| 20260509064958 | 70 | 243 | 0.0 | 3.0 | 0.00 | 0.00 | 0.00 | 79 | 1010.3 |
| 20260509064459 | 70 | 219 | 0.0 | 2.0 | 0.00 | 0.00 | 0.00 | 80 | 1010.4 |
| 20260509063959 | 70 | 216 | 0.0 | 2.0 | 0.00 | 0.00 | 0.00 | 80 | 1010.3 |
| 20260509063459 | 70 | 213 | 0.0 | 2.0 | 0.00 | 0.00 | 0.00 | 80 | 1010.0 |
| 20260509062959 | 70 | 226 | 0.0 | 2.0 | 0.00 | 0.00 | 0.00 | 80 | 1010.0 |
| 20260509062459 | 69 | 248 | 0.0 | 0.0 | 0.00 | 0.00 | 0.00 | 81 | 1010.2 |
| 20260509061958 | 70 | 248 | 0.0 | 0.0 | 0.00 | 0.00 | 0.00 | 82 | 1010.1 |
| 20260509061459 | 70 | 248 | 0.0 | 0.0 | 0.00 | 0.00 | 0.00 | 83 | 1010.2 |
| 20260509061000 | 70 | 248 | 0.0 | 0.0 | 0.00 | 0.00 | 0.00 | 83 | 1010.2 |
| 20260509060458 | 70 | 248 | 0.0 | 0.0 | 0.00 | 0.00 | 0.00 | 83 | 1010.2 |
| 20260509055957 | 70 | 248 | 0.0 | 0.0 | 0.00 | 0.00 | 0.00 | 83 | 1010.2 |
| 20260509055500 | 70 | 248 | 0.0 | 0.0 | 0.00 | 0.00 | 0.00 | 84 | 1010.2 |
| 20260509055456 | 70 | 248 | 0.0 | 0.0 | 0.00 | 0.00 | 0.00 | 83 | 1010.0 |
| 20260509055114 | 71 | 248 | 0.0 | 0.0 | 0.00 | 0.00 | 0.00 | 84 | 1010.2 |
| 20260509055110 | 70 | 248 | 0.0 | 0.0 | 0.00 | 0.00 | 0.00 | 84 | 1010.4 |
| 20260509054109 | 71 | 248 | 0.0 | 0.0 | 0.00 | 0.00 | 0.00 | 85 | 1010.4 |
| 20260509052957 | 71 | 248 | 0.0 | 0.0 | 0.00 | 0.00 | 0.00 | 85 | 1010.4 |
| 20260509052500 | 71 | 248 | 0.0 | 0.0 | 0.00 | 0.00 | 0.00 | 85 | 1010.6 |
| 20260509052454 | 71 | 248 | 0.0 | 0.0 | 0.00 | 0.00 | 0.00 | 85 | 1010.5 |
| 20260509052114 | 71 | 248 | 0.0 | 1.0 | 0.00 | 0.00 | 0.00 | 85 | 1010.8 |
| 20260509052108 | 71 | 248 | 0.0 | 1.0 | 0.00 | 0.00 | 0.00 | 85 | 1010.6 |
| 20260509050454 | 71 | 288 | 0.0 | 1.0 | 0.00 | 0.00 | 0.00 | 85 | 1010.2 |
| 20260509045956 | 71 | 245 | 0.0 | 0.0 | 0.00 | 0.00 | 0.00 | 84 | 1009.7 |
| 20260509045454 | 72 | 245 | 0.0 | 0.0 | 0.00 | 0.00 | 0.00 | 84 | 1009.7 |
| 20260509044958 | 72 | 245 | 0.0 | 3.0 | 0.00 | 0.00 | 0.00 | 84 | 1009.6 |
| 20260509044954 | 72 | 245 | 0.0 | 1.0 | 0.00 | 0.00 | 0.00 | 84 | 1009.7 |
| 20260509044609 | 72 | 242 | 0.0 | 3.0 | 0.00 | 0.00 | 0.00 | 84 | 1009.5 |
| 20260509043455 | 72 | 207 | 0.0 | 3.0 | 0.00 | 0.00 | 0.00 | 84 | 1009.4 |
| 20260509042959 | 72 | 195 | 0.0 | 6.0 | 0.00 | 0.00 | 0.00 | 84 | 1009.0 |
| 20260509042954 | 72 | 166 | 0.0 | 6.0 | 0.00 | 0.00 | 0.00 | 84 | 1009.3 |
| 20260509041956 | 72 | 228 | 0.0 | 2.0 | 0.00 | 0.00 | 0.00 | 84 | 1009.1 |
| 20260509041456 | 72 | 251 | 0.0 | 2.0 | 0.00 | 0.00 | 0.00 | 83 | 1009.2 |
| 20260509040956 | 72 | 219 | 0.0 | 1.0 | 0.00 | 0.00 | 0.00 | 83 | 1009.2 |
| 20260509040454 | 73 | 225 | 0.0 | 1.0 | 0.00 | 0.00 | 0.00 | 83 | 1009.3 |
| 20260509035958 | 73 | 37 | 0.0 | 0.0 | 0.00 | 0.00 | 0.00 | 82 | 1009.4 |
| 20260509035954 | 73 | 38 | 0.0 | 0.0 | 0.00 | 0.00 | 0.00 | 82 | 1009.4 |
| 20260509034956 | 73 | 37 | 0.0 | 0.0 | 0.00 | 0.00 | 0.00 | 82 | 1009.4 |
| 20260509034455 | 73 | 37 | 0.0 | 0.0 | 0.00 | 0.00 | 0.00 | 82 | 1009.6 |
| 20260509033956 | 73 | 37 | 0.0 | 0.0 | 0.00 | 0.00 | 0.00 | 82 | 1009.6 |
| 20260509033455 | 73 | 37 | 0.0 | 0.0 | 0.00 | 0.00 | 0.00 | 82 | 1009.6 |
| 20260509032956 | 73 | 37 | 0.0 | 0.0 | 0.00 | 0.00 | 0.00 | 82 | 1009.5 |
| 20260509032454 | 73 | 37 | 0.0 | 1.0 | 0.00 | 0.00 | 0.00 | 82 | 1009.4 |
| 20260509031955 | 73 | 37 | 0.0 | 1.0 | 0.00 | 0.00 | 0.00 | 82 | 1009.1 |
| 20260509031454 | 73 | 141 | 0.0 | 1.0 | 0.00 | 0.00 | 0.00 | 82 | 1008.7 |
| 20260509030955 | 73 | 37 | 0.0 | 3.0 | 0.00 | 0.00 | 0.00 | 82 | 1008.6 |
| 20260509030454 | 73 | 0 | 0.0 | 3.0 | 0.00 | 0.00 | 0.00 | 82 | 1008.5 |
| 20260509025954 | 73 | 69 | 0.0 | 0.0 | 0.00 | 0.00 | 0.00 | 82 | 1008.4 |
| 20260509025455 | 73 | 68 | 0.0 | 2.0 | 0.00 | 0.00 | 0.00 | 82 | 1008.4 |
| 20260509024956 | 73 | 169 | 0.0 | 2.0 | 0.00 | 0.00 | 0.00 | 82 | 1008.4 |
| 20260509024455 | 73 | 233 | 0.0 | 2.0 | 0.00 | 0.00 | 0.00 | 82 | 1008.2 |
| 20260509023954 | 73 | 190 | 0.0 | 2.0 | 0.00 | 0.00 | 0.00 | 82 | 1008.0 |
| 20260509023455 | 73 | 356 | 0.0 | 4.0 | 0.00 | 0.00 | 0.00 | 81 | 1007.8 |
| 20260509022953 | 73 | 154 | 0.0 | 4.0 | 0.00 | 0.00 | 0.00 | 81 | 1007.6 |
| 20260509022450 | 73 | 175 | 0.0 | 4.0 | 0.00 | 0.00 | 0.00 | 81 | 1007.7 |
| 20260509021950 | 73 | 195 | 0.0 | 3.0 | 0.00 | 0.00 | 0.00 | 80 | 1007.7 |
| 20260509021454 | 74 | 252 | 1.0 | 3.0 | 0.00 | 0.00 | 0.00 | 80 | 1007.6 |
| 20260509021450 | 73 | 169 | 0.0 | 3.0 | 0.00 | 0.00 | 0.00 | 80 | 1007.8 |
| 20260509020446 | 74 | 155 | 0.0 | 4.0 | 0.00 | 0.00 | 0.00 | 79 | 1007.4 |
| 20260509015946 | 74 | 181 | 0.0 | 4.0 | 0.00 | 0.00 | 0.00 | 79 | 1007.5 |
| 20260509015448 | 74 | 229 | 0.0 | 3.0 | 0.00 | 0.00 | 0.00 | 79 | 1007.6 |
| 20260509014947 | 74 | 224 | 0.0 | 1.0 | 0.00 | 0.00 | 0.00 | 79 | 1007.7 |
| 20260509014446 | 74 | 159 | 0.0 | 0.0 | 0.00 | 0.00 | 0.00 | 79 | 1007.9 |
| 20260509013945 | 74 | 210 | 0.0 | 2.0 | 0.00 | 0.00 | 0.00 | 79 | 1007.9 |
| 20260509013444 | 74 | 13 | 0.0 | 2.0 | 0.00 | 0.00 | 0.00 | 79 | 1007.9 |
| 20260509012944 | 74 | 181 | 0.0 | 0.0 | 0.00 | 0.00 | 0.00 | 79 | 1007.8 |
| 20260509012443 | 74 | 169 | 0.0 | 0.0 | 0.00 | 0.00 | 0.00 | 78 | 1007.9 |
| 20260509011943 | 74 | 216 | 0.0 | 1.0 | 0.00 | 0.00 | 0.00 | 78 | 1007.9 |
| 20260509011442 | 74 | 148 | 0.0 | 1.0 | 0.00 | 0.00 | 0.00 | 78 | 1008.0 |
| 20260509010942 | 74 | 224 | 0.0 | 2.0 | 0.00 | 0.00 | 0.00 | 78 | 1007.8 |
| 20260509010441 | 74 | 283 | 0.0 | 2.0 | 0.00 | 0.00 | 0.00 | 78 | 1007.7 |
| 20260509005940 | 74 | 214 | 0.0 | 4.0 | 0.00 | 0.00 | 0.00 | 77 | 1007.6 |
| 20260509005445 | 74 | 243 | 0.0 | 4.0 | 0.00 | 0.00 | 0.00 | 77 | 1007.4 |
| 20260509005441 | 74 | 193 | 0.0 | 4.0 | 0.00 | 0.00 | 0.00 | 77 | 1007.4 |
| 20260509004438 | 74 | 193 | 0.0 | 5.0 | 0.00 | 0.00 | 0.00 | 76 | 1007.4 |
| 20260509003938 | 75 | 251 | 1.0 | 6.0 | 0.00 | 0.00 | 0.00 | 76 | 1007.4 |
| 20260509003436 | 75 | 237 | 1.0 | 6.0 | 0.00 | 0.00 | 0.00 | 76 | 1007.3 |
| 20260509002936 | 75 | 227 | 1.0 | 6.0 | 0.00 | 0.00 | 0.00 | 76 | 1007.2 |
| 20260509002436 | 75 | 224 | 1.0 | 6.0 | 0.00 | 0.00 | 0.00 | 75 | 1007.2 |
| 20260509001938 | 75 | 288 | 1.0 | 5.0 | 0.00 | 0.00 | 0.00 | 75 | 1007.2 |
| 20260509001437 | 75 | 231 | 1.0 | 6.0 | 0.00 | 0.00 | 0.00 | 75 | 1007.3 |
| 20260509000934 | 75 | 83 | 1.0 | 6.0 | 0.00 | 0.00 | 0.00 | 74 | 1007.2 |
| 20260509000434 | 75 | 236 | 0.0 | 4.0 | 0.00 | 0.00 | 0.00 | 74 | 1007.3 |
| 20260508235933 | 75 | 214 | 0.0 | 5.0 | 0.00 | 0.00 | 0.00 | 74 | 1007.4 |
| 20260508235438 | 75 | 144 | 1.0 | 4.0 | 0.00 | 0.00 | 0.00 | 74 | 1007.5 |
| 20260508235432 | 75 | 232 | 0.0 | 5.0 | 0.00 | 0.00 | 0.00 | 74 | 1007.4 |
| 20260508234434 | 75 | 216 | 1.0 | 4.0 | 0.00 | 0.00 | 0.00 | 73 | 1007.5 |
| 20260508233932 | 76 | 217 | 1.0 | 4.0 | 0.00 | 0.00 | 0.00 | 72 | 1007.6 |
| 20260508233432 | 76 | 219 | 1.0 | 4.0 | 0.00 | 0.00 | 0.00 | 72 | 1007.7 |
| 20260508232936 | 76 | 216 | 0.0 | 6.0 | 0.00 | 0.00 | 0.00 | 70 | 1007.7 |
| 20260508232932 | 76 | 222 | 1.0 | 6.0 | 0.00 | 0.00 | 0.00 | 71 | 1007.7 |
| 20260508231932 | 77 | 229 | 1.0 | 7.0 | 0.00 | 0.00 | 0.00 | 70 | 1007.8 |
| 20260508231432 | 77 | 249 | 1.0 | 7.0 | 0.00 | 0.00 | 0.00 | 69 | 1007.8 |
| 20260508230931 | 78 | 295 | 1.0 | 5.0 | 0.00 | 0.00 | 0.00 | 69 | 1007.7 |
| 20260508230435 | 79 | 74 | 0.0 | 4.0 | 0.00 | 0.00 | 0.00 | 66 | 1007.7 |
| 20260508230431 | 78 | 286 | 1.0 | 4.0 | 0.00 | 0.00 | 0.00 | 67 | 1007.8 |
| 20260508225430 | 79 | 229 | 0.0 | 4.0 | 0.00 | 0.00 | 0.00 | 65 | 1007.8 |
| 20260508224931 | 80 | 303 | 0.0 | 4.0 | 0.00 | 0.00 | 0.00 | 65 | 1007.6 |
| 20260508224434 | 80 | 210 | 0.0 | 3.0 | 0.00 | 0.00 | 0.00 | 65 | 1007.8 |
| 20260508224430 | 80 | 293 | 0.0 | 3.0 | 0.00 | 0.00 | 0.00 | 64 | 1007.8 |
| 20260508223434 | 80 | 122 | 0.0 | 6.0 | 0.00 | 0.00 | 0.00 | 63 | 1007.7 |
| 20260508223430 | 80 | 209 | 0.0 | 3.0 | 0.00 | 0.00 | 0.00 | 64 | 1007.8 |
| 20260508223045 | 80 | 119 | 0.0 | 6.0 | 0.00 | 0.00 | 0.00 | 64 | 1007.7 |
| 20260508222542 | 80 | 153 | 1.0 | 6.0 | 0.00 | 0.00 | 0.00 | 64 | 1007.8 |
| 20260508221428 | 80 | 37 | 0.0 | 6.0 | 0.00 | 0.00 | 0.00 | 64 | 1007.9 |
| 20260508220932 | 79 | 264 | 1.0 | 6.0 | 0.00 | 0.00 | 0.00 | 63 | 1007.8 |
| 20260508220928 | 80 | 329 | 1.0 | 6.0 | 0.00 | 0.00 | 0.00 | 63 | 1007.8 |
| 20260508215928 | 79 | 205 | 1.0 | 7.0 | 0.00 | 0.00 | 0.00 | 63 | 1007.8 |
| 20260508215428 | 80 | 79 | 1.0 | 7.0 | 0.00 | 0.00 | 0.00 | 61 | 1008.0 |
| 20260508214929 | 80 | 219 | 1.0 | 5.0 | 0.00 | 0.00 | 0.00 | 61 | 1008.0 |
| 20260508214428 | 80 | 249 | 1.0 | 5.0 | 0.00 | 0.00 | 0.00 | 60 | 1008.0 |
| 20260508213928 | 80 | 202 | 1.0 | 9.0 | 0.00 | 0.00 | 0.00 | 62 | 1008.1 |
| 20260508213433 | 79 | 271 | 1.0 | 9.0 | 0.00 | 0.00 | 0.00 | 59 | 1008.1 |
| 20260508213429 | 79 | 143 | 1.0 | 9.0 | 0.00 | 0.00 | 0.00 | 61 | 1008.1 |
| 20260508212426 | 79 | 60 | 1.0 | 6.0 | 0.00 | 0.00 | 0.00 | 61 | 1008.2 |
| 20260508211930 | 79 | 68 | 0.0 | 5.0 | 0.00 | 0.00 | 0.00 | 61 | 1008.4 |
| 20260508211926 | 79 | 238 | 0.0 | 6.0 | 0.00 | 0.00 | 0.00 | 60 | 1008.3 |
| 20260508211540 | 78 | 103 | 1.0 | 5.0 | 0.00 | 0.00 | 0.00 | 64 | 1008.4 |
| 20260508210428 | 78 | 49 | 1.0 | 5.0 | 0.00 | 0.00 | 0.00 | 63 | 1008.7 |
| 20260508205927 | 78 | 39 | 1.0 | 7.0 | 0.00 | 0.00 | 0.00 | 62 | 1008.7 |
| 20260508205430 | 78 | 3 | 0.0 | 5.0 | 0.00 | 0.00 | 0.00 | 62 | 1008.7 |
| 20260508205426 | 78 | 250 | 1.0 | 7.0 | 0.00 | 0.00 | 0.00 | 62 | 1008.8 |
| 20260508204425 | 77 | 227 | 0.0 | 5.0 | 0.00 | 0.00 | 0.00 | 64 | 1008.6 |
| 20260508203924 | 76 | 309 | 0.0 | 4.0 | 0.00 | 0.00 | 0.00 | 64 | 1008.6 |
| 20260508203424 | 75 | 13 | 0.0 | 4.0 | 0.00 | 0.00 | 0.00 | 67 | 1008.5 |
| 20260508202924 | 75 | 52 | 0.0 | 4.0 | 0.00 | 0.00 | 0.00 | 67 | 1009.1 |
| 20260508202423 | 74 | 338 | 0.0 | 2.0 | 0.00 | 0.00 | 0.00 | 69 | 1009.4 |
| 20260508201923 | 73 | 122 | 0.0 | 5.0 | 0.00 | 0.00 | 0.00 | 68 | 1009.6 |
| 20260508201424 | 74 | 180 | 0.0 | 5.0 | 0.00 | 0.00 | 0.00 | 67 | 1009.9 |
| 20260508200925 | 74 | 60 | 0.0 | 5.0 | 0.00 | 0.00 | 0.00 | 67 | 1010.0 |
| 20260508200424 | 74 | 227 | 1.0 | 5.0 | 0.00 | 0.00 | 0.00 | 66 | 1010.5 |
| 20260508195923 | 75 | 189 | 1.0 | 4.0 | 0.00 | 0.00 | 0.00 | 65 | 1010.3 |
| 20260508195423 | 75 | 226 | 1.0 | 5.0 | 0.00 | 0.00 | 0.00 | 64 | 1010.3 |
| 20260508194921 | 76 | 197 | 1.0 | 5.0 | 0.00 | 0.00 | 0.00 | 64 | 1010.3 |
| 20260508194422 | 76 | 214 | 1.0 | 5.0 | 0.00 | 0.00 | 0.00 | 63 | 1010.2 |
| 20260508193922 | 77 | 312 | 1.0 | 5.0 | 0.00 | 0.00 | 0.00 | 62 | 1010.2 |
| 20260508193422 | 77 | 187 | 1.0 | 5.0 | 0.00 | 0.00 | 0.00 | 64 | 1010.1 |
| 20260508192923 | 77 | 184 | 1.0 | 6.0 | 0.00 | 0.00 | 0.00 | 65 | 1010.2 |
| 20260508192422 | 76 | 217 | 1.0 | 6.0 | 0.00 | 0.00 | 0.00 | 65 | 1010.2 |
| 20260508191922 | 76 | 254 | 2.0 | 9.0 | 0.00 | 0.00 | 0.00 | 65 | 1010.3 |
| 20260508191426 | 77 | 196 | 1.0 | 5.0 | 0.00 | 0.00 | 0.00 | 64 | 1010.3 |
| 20260508191422 | 76 | 223 | 1.0 | 9.0 | 0.00 | 0.00 | 0.00 | 63 | 1010.3 |
| 20260508190420 | 77 | 278 | 1.0 | 4.0 | 0.00 | 0.00 | 0.00 | 64 | 1010.3 |
| 20260508185921 | 77 | 250 | 1.0 | 5.0 | 0.00 | 0.00 | 0.00 | 63 | 1010.4 |
| 20260508185421 | 77 | 255 | 1.0 | 5.0 | 0.00 | 0.00 | 0.00 | 63 | 1010.4 |
| 20260508184921 | 77 | 207 | 1.0 | 5.0 | 0.00 | 0.00 | 0.00 | 63 | 1010.4 |
| 20260508184426 | 78 | 122 | 1.0 | 4.0 | 0.00 | 0.00 | 0.00 | 62 | 1010.6 |
| 20260508184420 | 77 | 212 | 1.0 | 4.0 | 0.00 | 0.00 | 0.00 | 62 | 1010.5 |
| 20260508183418 | 78 | 212 | 1.0 | 6.0 | 0.00 | 0.00 | 0.00 | 62 | 1010.7 |
| 20260508182918 | 78 | 221 | 1.0 | 6.0 | 0.00 | 0.00 | 0.00 | 59 | 1010.7 |
| 20260508182419 | 78 | 281 | 1.0 | 5.0 | 0.00 | 0.00 | 0.00 | 61 | 1010.7 |
| 20260508181919 | 78 | 241 | 0.0 | 4.0 | 0.00 | 0.00 | 0.00 | 61 | 1010.7 |
| 20260508181418 | 78 | 79 | 0.0 | 3.0 | 0.00 | 0.00 | 0.00 | 62 | 1010.7 |
| 20260508180923 | 78 | 229 | 1.0 | 5.0 | 0.00 | 0.00 | 0.00 | 60 | 1011.0 |
| 20260508180918 | 78 | 52 | 1.0 | 3.0 | 0.00 | 0.00 | 0.00 | 62 | 1010.8 |
| 20260508175917 | 77 | 221 | 1.0 | 5.0 | 0.00 | 0.00 | 0.00 | 60 | 1011.1 |
| 20260508175419 | 77 | 250 | 1.0 | 6.0 | 0.00 | 0.00 | 0.00 | 60 | 1011.3 |
| 20260508174917 | 78 | 8 | 1.0 | 6.0 | 0.00 | 0.00 | 0.00 | 59 | 1011.3 |
| 20260508174418 | 77 | 202 | 1.0 | 6.0 | 0.00 | 0.00 | 0.00 | 61 | 1011.4 |
| 20260508173918 | 77 | 218 | 1.0 | 6.0 | 0.00 | 0.00 | 0.00 | 60 | 1011.5 |
| 20260508173416 | 77 | 243 | 1.0 | 9.0 | 0.00 | 0.00 | 0.00 | 60 | 1011.6 |
| 20260508172914 | 77 | 14 | 1.0 | 9.0 | 0.00 | 0.00 | 0.00 | 60 | 1011.7 |
| 20260508172414 | 77 | 242 | 1.0 | 5.0 | 0.00 | 0.00 | 0.00 | 60 | 1011.7 |
| 20260508171913 | 76 | 210 | 1.0 | 5.0 | 0.00 | 0.00 | 0.00 | 61 | 1011.8 |
| 20260508171415 | 76 | 226 | 1.0 | 6.0 | 0.00 | 0.00 | 0.00 | 59 | 1011.9 |
| 20260508170913 | 76 | 286 | 1.0 | 6.0 | 0.00 | 0.00 | 0.00 | 59 | 1012.0 |
| 20260508170412 | 76 | 205 | 0.0 | 5.0 | 0.00 | 0.00 | 0.00 | 60 | 1012.1 |
| 20260508165911 | 77 | 321 | 0.0 | 5.0 | 0.00 | 0.00 | 0.00 | 58 | 1012.1 |
| 20260508165410 | 77 | 227 | 0.0 | 5.0 | 0.00 | 0.00 | 0.00 | 58 | 1012.1 |
| 20260508164910 | 77 | 56 | 0.0 | 5.0 | 0.00 | 0.00 | 0.00 | 61 | 1012.1 |
| 20260508164410 | 76 | 244 | 0.0 | 4.0 | 0.00 | 0.00 | 0.00 | 60 | 1012.1 |
| 20260508163911 | 75 | 162 | 0.0 | 3.0 | 0.00 | 0.00 | 0.00 | 61 | 1012.6 |
| 20260508163907 | 76 | 229 | 0.0 | 3.0 | 0.00 | 0.00 | 0.00 | 62 | 1012.4 |
| 20260508162906 | 74 | 34 | 0.0 | 3.0 | 0.00 | 0.00 | 0.00 | 62 | 1012.6 |
| 20260508162405 | 74 | 115 | 0.0 | 4.0 | 0.00 | 0.00 | 0.00 | 64 | 1012.6 |
| 20260508161903 | 73 | 247 | 0.0 | 4.0 | 0.00 | 0.00 | 0.00 | 65 | 1012.8 |
| 20260508161405 | 72 | 198 | 1.0 | 6.0 | 0.00 | 0.00 | 0.00 | 65 | 1013.0 |
| 20260508161401 | 72 | 229 | 1.0 | 5.0 | 0.00 | 0.00 | 0.00 | 65 | 1012.8 |
| 20260508161015 | 72 | 221 | 2.0 | 7.0 | 0.00 | 0.00 | 0.00 | 64 | 1013.1 |
| 20260508155902 | 72 | 219 | 2.0 | 7.0 | 0.00 | 0.00 | 0.00 | 64 | 1013.1 |
| 20260508155403 | 72 | 236 | 1.0 | 4.0 | 0.00 | 0.00 | 0.00 | 65 | 1013.1 |
| 20260508154900 | 72 | 9 | 1.0 | 6.0 | 0.00 | 0.00 | 0.00 | 65 | 1013.1 |
| 20260508154359 | 72 | 4 | 0.0 | 6.0 | 0.00 | 0.00 | 0.00 | 65 | 1013.2 |
| 20260508153904 | 71 | 31 | 1.0 | 4.0 | 0.00 | 0.00 | 0.00 | 65 | 1013.2 |
| 20260508153900 | 71 | 123 | 1.0 | 3.0 | 0.00 | 0.00 | 0.00 | 64 | 1013.2 |
| 20260508152903 | 71 | 4 | 0.0 | 4.0 | 0.00 | 0.00 | 0.00 | 66 | 1013.3 |
| 20260508152858 | 71 | 18 | 0.0 | 4.0 | 0.00 | 0.00 | 0.00 | 67 | 1013.3 |
| 20260508151857 | 71 | 201 | 0.0 | 4.0 | 0.00 | 0.00 | 0.00 | 66 | 1013.5 |
| 20260508151401 | 70 | 184 | 1.0 | 5.0 | 0.00 | 0.00 | 0.00 | 68 | 1013.5 |
| 20260508151357 | 71 | 265 | 0.0 | 3.0 | 0.00 | 0.00 | 0.00 | 66 | 1013.6 |